When you browse on this site, cookies collect data to enhance your experience and personalize the content and advertising you see.
Visit our Privacy Policy to learn more. By continuing to use the site, you agree to this use of cookies and data.

Météo par heure à Bolshie Leznevichi

Ce jour, 10 Juillet, Vendredi

Heure Température Précipitation Vent Pression Humidité
00:00 +11°C° 0 mm 3 m/s 738 mmHg 87%
01:00 +10°C° 0 mm 3 m/s 737 mmHg 89%
02:00 +10°C° 0 mm 3 m/s 737 mmHg 90%
03:00 +11°C° 0 mm 3 m/s 737 mmHg 89%
04:00 +11°C° 0 mm 3 m/s 737 mmHg 88%
05:00 +12°C° 0 mm 4 m/s 736 mmHg 86%
06:00 +13°C° 0 mm 5 m/s 736 mmHg 86%
07:00 +14°C° 0 mm 5 m/s 736 mmHg 85%
08:00 +15°C° 0 mm 6 m/s 735 mmHg 84%
09:00 +17°C° 0.1 mm 6 m/s 735 mmHg 83%
10:00 +19°C° 0.1 mm 6 m/s 735 mmHg 82%
11:00 +20°C° 0.1 mm 6 m/s 735 mmHg 80%
12:00 +21°C° 0.8 mm 6 m/s 735 mmHg 81%
13:00 +22°C° 0.8 mm 6 m/s 734 mmHg 81%
14:00 +23°C° 0.8 mm 6 m/s 734 mmHg 81%
15:00 +23°C° 0.8 mm 6 m/s 734 mmHg 82%
16:00 +23°C° 0.8 mm 5 m/s 734 mmHg 83%
17:00 +23°C° 0.8 mm 4 m/s 734 mmHg 84%
18:00 +22°C° 0.7 mm 4 m/s 734 mmHg 86%
19:00 +21°C° 0.7 mm 3 m/s 734 mmHg 89%
20:00 +20°C° 0.7 mm 3 m/s 734 mmHg 91%
21:00 +20°C° 0.7 mm 3 m/s 734 mmHg 92%
22:00 +19°C° 0.7 mm 3 m/s 734 mmHg 93%
23:00 +19°C° 0.7 mm 4 m/s 734 mmHg 94%

Demain, 11 Juillet, Samedi

Heure Température Précipitation Vent Pression Humidité
00:00 +19°C° 0.4 mm 4 m/s 734 mmHg 94%
01:00 +19°C° 0.4 mm 5 m/s 734 mmHg 94%
02:00 +19°C° 0.4 mm 6 m/s 734 mmHg 94%
03:00 +19°C° 0.2 mm 6 m/s 734 mmHg 94%
04:00 +19°C° 0.2 mm 5 m/s 734 mmHg 95%
05:00 +19°C° 0.2 mm 5 m/s 735 mmHg 96%
06:00 +19°C° 0.1 mm 5 m/s 735 mmHg 93%
07:00 +19°C° 0.1 mm 4 m/s 736 mmHg 90%
08:00 +19°C° 0.1 mm 4 m/s 736 mmHg 87%
09:00 +19°C° 0 mm 4 m/s 737 mmHg 82%
10:00 +19°C° 0 mm 4 m/s 737 mmHg 76%
11:00 +19°C° 0 mm 4 m/s 738 mmHg 70%
12:00 +19°C° 0 mm 4 m/s 738 mmHg 71%
13:00 +19°C° 0 mm 4 m/s 738 mmHg 71%
14:00 +18°C° 0 mm 4 m/s 739 mmHg 72%
15:00 +18°C° 0 mm 3 m/s 739 mmHg 74%
16:00 +17°C° 0 mm 3 m/s 739 mmHg 76%
17:00 +16°C° 0 mm 2 m/s 739 mmHg 79%
18:00 +15°C° 0 mm 2 m/s 739 mmHg 80%
19:00 +15°C° 0 mm 2 m/s 739 mmHg 80%
20:00 +14°C° 0 mm 2 m/s 739 mmHg 81%
21:00 +13°C° 0.1 mm 3 m/s 739 mmHg 82%
22:00 +13°C° 0.1 mm 3 m/s 740 mmHg 83%
23:00 +12°C° 0.1 mm 4 m/s 740 mmHg 84%

Après-demain, 12 Juillet, Dimanche

Heure Température Précipitation Vent Pression Humidité
00:00 +12°C° 0.6 mm 3 m/s 740 mmHg 88%
01:00 +11°C° 0.6 mm 3 m/s 740 mmHg 92%
02:00 +12°C° 0.6 mm 2 m/s 740 mmHg 97%
03:00 +12°C° 0.5 mm 2 m/s 740 mmHg 96%
04:00 +12°C° 0.5 mm 2 m/s 740 mmHg 96%
05:00 +12°C° 0.5 mm 1 m/s 740 mmHg 96%
06:00 +12°C° 0.3 mm 1 m/s 740 mmHg 95%
07:00 +12°C° 0.3 mm 1 m/s 740 mmHg 95%
08:00 +12°C° 0.3 mm 1 m/s 740 mmHg 94%
09:00 +13°C° 0.4 mm 2 m/s 740 mmHg 91%
10:00 +13°C° 0.4 mm 2 m/s 740 mmHg 88%
11:00 +13°C° 0.4 mm 2 m/s 740 mmHg 85%
12:00 +14°C° 0.2 mm 2 m/s 740 mmHg 80%
13:00 +15°C° 0.2 mm 2 m/s 740 mmHg 76%
14:00 +16°C° 0.2 mm 2 m/s 740 mmHg 71%
15:00 +16°C° 0.1 mm 2 m/s 740 mmHg 72%
16:00 +16°C° 0.1 mm 2 m/s 740 mmHg 73%
17:00 +16°C° 0.1 mm 2 m/s 740 mmHg 74%
18:00 +15°C° 0.1 mm 2 m/s 740 mmHg 79%
19:00 +15°C° 0.1 mm 2 m/s 740 mmHg 84%
20:00 +14°C° 0.1 mm 2 m/s 739 mmHg 89%
21:00 +13°C° 0 mm 2 m/s 739 mmHg 91%
22:00 +11°C° 0 mm 3 m/s 739 mmHg 93%
23:00 +10°C° 0 mm 3 m/s 739 mmHg 95%

13 Juillet, Lundi

Heure Température Précipitation Vent Pression Humidité
00:00 +9°C° 0 mm 3 m/s 739 mmHg 95%
01:00 +9°C° 0 mm 3 m/s 739 mmHg 95%
02:00 +8°C° 0 mm 3 m/s 739 mmHg 95%
03:00 +8°C° 0 mm 3 m/s 739 mmHg 95%
04:00 +8°C° 0 mm 2 m/s 739 mmHg 95%
05:00 +7°C° 0 mm 2 m/s 739 mmHg 96%
06:00 +9°C° 0 mm 3 m/s 739 mmHg 92%
07:00 +11°C° 0 mm 3 m/s 739 mmHg 89%
08:00 +12°C° 0 mm 3 m/s 739 mmHg 85%
09:00 +13°C° 0.1 mm 4 m/s 738 mmHg 79%
10:00 +14°C° 0.1 mm 4 m/s 738 mmHg 74%
11:00 +15°C° 0.1 mm 4 m/s 738 mmHg 68%
12:00 +17°C° 0.1 mm 4 m/s 738 mmHg 65%
13:00 +18°C° 0.1 mm 4 m/s 738 mmHg 62%
14:00 +19°C° 0.1 mm 4 m/s 737 mmHg 59%
15:00 +19°C° 0 mm 4 m/s 737 mmHg 60%
16:00 +19°C° 0 mm 3 m/s 737 mmHg 61%
17:00 +19°C° 0 mm 3 m/s 736 mmHg 63%
18:00 +18°C° 0 mm 3 m/s 736 mmHg 70%
19:00 +16°C° 0 mm 3 m/s 736 mmHg 78%
20:00 +15°C° 0 mm 2 m/s 736 mmHg 85%
21:00 +13°C° 0 mm 3 m/s 736 mmHg 88%
22:00 +12°C° 0 mm 3 m/s 736 mmHg 91%
23:00 +11°C° 0 mm 3 m/s 736 mmHg 94%

14 Juillet, Mardi

Heure Température Précipitation Vent Pression Humidité
00:00 +11°C° 0 mm 3 m/s 736 mmHg 95%
01:00 +10°C° 0 mm 3 m/s 736 mmHg 96%
02:00 +10°C° 0 mm 3 m/s 737 mmHg 97%
03:00 +10°C° 0 mm 3 m/s 736 mmHg 97%
04:00 +9°C° 0 mm 3 m/s 736 mmHg 97%
05:00 +9°C° 0 mm 3 m/s 736 mmHg 98%
06:00 +10°C° 0 mm 3 m/s 736 mmHg 93%
07:00 +12°C° 0 mm 4 m/s 736 mmHg 88%
08:00 +13°C° 0 mm 4 m/s 737 mmHg 83%
09:00 +14°C° 0 mm 4 m/s 737 mmHg 76%
10:00 +17°C° 0 mm 4 m/s 737 mmHg 70%
11:00 +17°C° 0 mm 5 m/s 737 mmHg 63%
12:00 +18°C° 0 mm 4 m/s 737 mmHg 61%
13:00 +19°C° 0 mm 4 m/s 737 mmHg 59%
14:00 +19°C° 0 mm 4 m/s 737 mmHg 58%
15:00 +19°C° 0 mm 4 m/s 737 mmHg 59%
16:00 +19°C° 0 mm 4 m/s 737 mmHg 61%
17:00 +19°C° 0 mm 3 m/s 736 mmHg 62%
18:00 +18°C° 0 mm 3 m/s 736 mmHg 68%
19:00 +17°C° 0 mm 2 m/s 737 mmHg 74%
20:00 +15°C° 0 mm 2 m/s 737 mmHg 80%
21:00 +14°C° 0 mm 1 m/s 737 mmHg 83%
22:00 +13°C° 0 mm 1 m/s 737 mmHg 86%
23:00 +12°C° 0 mm 1 m/s 737 mmHg 89%

15 Juillet, Mercredi

Heure Température Précipitation Vent Pression Humidité
00:00 +12°C° 0 mm 1 m/s 737 mmHg 90%
01:00 +12°C° 0 mm 1 m/s 737 mmHg 90%
02:00 +10°C° 0 mm 0 m/s 737 mmHg 90%
03:00 +11°C° 0 mm 1 m/s 737 mmHg 90%
04:00 +11°C° 0 mm 1 m/s 737 mmHg 90%
05:00 +11°C° 0 mm 1 m/s 737 mmHg 90%
06:00 +13°C° 0 mm 1 m/s 737 mmHg 85%
07:00 +15°C° 0 mm 1 m/s 738 mmHg 80%
08:00 +18°C° 0 mm 1 m/s 738 mmHg 75%
09:00 +18°C° 0 mm 2 m/s 738 mmHg 70%
10:00 +19°C° 0 mm 2 m/s 738 mmHg 65%
11:00 +20°C° 0 mm 2 m/s 738 mmHg 60%
12:00 +21°C° 0 mm 3 m/s 738 mmHg 59%
13:00 +21°C° 0 mm 3 m/s 737 mmHg 58%
14:00 +22°C° 0 mm 3 m/s 737 mmHg 57%
15:00 +21°C° 0 mm 3 m/s 737 mmHg 59%
16:00 +21°C° 0 mm 2 m/s 737 mmHg 61%
17:00 +21°C° 0 mm 2 m/s 736 mmHg 63%
18:00 +20°C° 0 mm 2 m/s 736 mmHg 70%
19:00 +18°C° 0 mm 2 m/s 736 mmHg 76%
20:00 +17°C° 0 mm 2 m/s 736 mmHg 83%
21:00 +16°C° 0 mm 2 m/s 736 mmHg 85%
22:00 +15°C° 0 mm 2 m/s 736 mmHg 88%
23:00 +14°C° 0 mm 2 m/s 736 mmHg 91%
Voir plus